Location: Forst
(46.9333°N, 15.4333°E)
Time: 06:29:46
(UTC+00:00)

Lacrosse 5 rocket - Pass Details

Date: 21 April 2021
Orbit: 460 x 634 km, 57.0° (Epoch: 12 May)

Event Time Altitude Azimuth Distance (km) Brightness Sun altitude
Rises 19:08:52 0° 292° (WNW) 2,693 6.7 -12.1°
Reaches altitude 10° 19:11:28 10° 309° (NW) 1,837 5.5 -12.5°
Maximum altitude 19:14:40 21° 359° (N) 1,317 3.7 -12.9°
Drops below altitude 10° 19:18:01 10° 49° (NE) 1,920 3.9 -13.4°
Enters shadow 19:20:26 - 64° (ENE) 2,718 4.6 -13.7°
